Time,TemperatureF,DewpointF,PressureIn,WindDirection,WindDirectionDegrees,WindSpeedMPH,WindSpeedGustMPH,Humidity,HourlyPrecipIn,Conditions,Clouds,dailyrainin,SoftwareType,DateUTC
2013-02-10 00:01:00,12.0,7.0,30.39,South,180,0.0,0.0,80,0.00,,,0.91,,2013-02-10 05:01:00,
2013-02-10 00:11:00,12.0,7.0,30.39,South,180,0.0,0.0,80,0.00,,,0.91,,2013-02-10 05:11:00,
2013-02-10 00:22:00,13.0,8.0,30.39,South,181,0.0,0.0,80,0.00,,,0.91,,2013-02-10 05:22:00,
2013-02-10 00:32:00,13.0,8.0,30.40,South,181,0.0,0.0,80,0.00,,,0.91,,2013-02-10 05:32:00,
2013-02-10 00:41:00,13.0,8.0,30.40,South,181,0.0,0.0,80,0.00,,,0.91,,2013-02-10 05:41:00,
2013-02-10 00:52:00,13.0,8.0,30.40,South,181,0.0,0.0,80,0.00,,,0.91,,2013-02-10 05:52:00,
2013-02-10 01:02:00,14.0,9.0,30.40,South,181,0.0,0.0,80,0.00,,,0.91,,2013-02-10 06:02:00,
2013-02-10 01:11:00,14.0,9.0,30.40,South,181,0.0,0.0,80,0.00,,,0.91,,2013-02-10 06:11:00,
2013-02-10 01:21:00,14.0,9.0,30.40,South,175,0.0,0.0,80,0.00,,,0.91,,2013-02-10 06:21:00,
2013-02-10 01:32:00,13.0,8.0,30.40,South,175,0.0,0.0,80,0.00,,,0.91,,2013-02-10 06:32:00,
2013-02-10 01:42:00,13.0,8.0,30.40,South,175,0.0,0.0,80,0.00,,,0.91,,2013-02-10 06:42:00,
2013-02-10 01:52:00,13.0,8.0,30.39,South,174,0.0,0.0,80,0.00,,,0.91,,2013-02-10 06:52:00,
2013-02-10 02:01:00,12.0,7.0,30.39,South,174,0.0,0.0,81,0.00,,,0.91,,2013-02-10 07:01:00,
2013-02-10 02:11:00,12.0,7.0,30.39,South,174,0.0,0.0,81,0.00,,,0.91,,2013-02-10 07:11:00,
2013-02-10 02:21:00,13.0,8.0,30.39,South,174,0.0,0.0,81,0.00,,,0.91,,2013-02-10 07:21:00,
2013-02-10 02:31:00,12.0,7.0,30.39,South,174,0.0,0.0,81,0.00,,,0.91,,2013-02-10 07:31:00,
2013-02-10 02:42:00,12.0,7.0,30.39,South,174,0.0,0.0,81,0.00,,,0.91,,2013-02-10 07:42:00,
2013-02-10 02:52:00,13.0,8.0,30.39,South,174,0.0,0.0,81,0.00,,,0.91,,2013-02-10 07:52:00,
2013-02-10 03:01:00,12.0,7.0,30.39,South,174,0.0,0.0,81,0.00,,,0.91,,2013-02-10 08:01:00,
2013-02-10 03:11:00,12.0,7.0,30.39,South,174,0.0,0.0,81,0.00,,,0.91,,2013-02-10 08:11:00,
2013-02-10 03:21:00,12.0,7.0,30.38,South,174,0.0,0.0,80,0.00,,,0.91,,2013-02-10 08:21:00,
2013-02-10 03:32:00,12.0,7.0,30.37,South,174,0.0,0.0,80,0.00,,,0.91,,2013-02-10 08:32:00,
2013-02-10 03:43:00,12.0,7.0,30.37,South,174,0.0,0.0,80,0.00,,,0.91,,2013-02-10 08:43:00,
2013-02-10 03:52:00,12.0,7.0,30.37,South,174,0.0,0.0,80,0.00,,,0.91,,2013-02-10 08:52:00,
2013-02-10 04:02:00,11.0,6.0,30.36,South,174,0.0,0.0,80,0.00,,,0.91,,2013-02-10 09:02:00,
2013-02-10 04:11:00,11.0,6.0,30.36,South,174,0.0,0.0,80,0.00,,,0.91,,2013-02-10 09:11:00,
2013-02-10 04:21:00,10.0,5.0,30.35,South,174,0.0,0.0,80,0.00,,,0.91,,2013-02-10 09:21:00,
2013-02-10 04:32:00,10.0,5.0,30.35,South,173,327.0,327.0,80,-99.99,,,-99.99,,2013-02-10 09:32:00,
2013-02-10 04:42:00,10.0,5.0,30.35,South,173,327.0,327.0,80,-99.99,,,-99.99,,2013-02-10 09:42:00,
2013-02-10 04:52:00,10.0,5.0,30.35,SE,136,0.0,0.0,80,0.00,,,0.91,,2013-02-10 09:52:00,
2013-02-10 05:01:00,10.0,5.0,30.34,SE,136,0.0,0.0,80,0.00,,,0.91,,2013-02-10 10:01:00,
2013-02-10 05:11:00,10.0,5.0,30.34,SE,136,0.0,0.0,80,0.00,,,0.91,,2013-02-10 10:11:00,
2013-02-10 05:21:00,10.0,5.0,30.34,SE,136,0.0,0.0,80,0.00,,,0.91,,2013-02-10 10:21:00,
2013-02-10 05:31:00,11.0,6.0,30.34,SE,136,0.0,0.0,80,0.00,,,0.91,,2013-02-10 10:31:00,
2013-02-10 05:42:00,11.0,6.0,30.34,SE,136,0.0,0.0,80,0.00,,,0.91,,2013-02-10 10:42:00,
2013-02-10 05:52:00,10.0,5.0,30.35,SE,137,0.0,0.0,80,0.00,,,0.91,,2013-02-10 10:52:00,
2013-02-10 06:01:00,9.0,4.0,30.35,South,173,0.0,0.0,80,0.00,,,0.91,,2013-02-10 11:01:00,
2013-02-10 06:11:00,9.0,4.0,30.35,South,173,0.0,0.0,80,0.00,,,0.91,,2013-02-10 11:11:00,
2013-02-10 06:22:00,9.0,4.0,30.35,SSE,163,0.0,0.0,80,0.00,,,0.91,,2013-02-10 11:22:00,
2013-02-10 06:32:00,9.0,4.0,30.35,SE,144,0.0,0.0,80,0.00,,,0.91,,2013-02-10 11:32:00,
2013-02-10 06:42:00,9.0,4.0,30.35,SE,144,0.0,0.0,80,0.00,,,0.91,,2013-02-10 11:42:00,
2013-02-10 06:52:00,9.0,4.0,30.35,SE,144,0.0,0.0,80,0.00,,,0.91,,2013-02-10 11:52:00,
2013-02-10 07:02:00,9.0,4.0,30.35,SE,144,0.0,0.0,80,0.00,,,0.91,,2013-02-10 12:02:00,
2013-02-10 07:12:00,10.0,5.0,30.35,SE,144,0.0,0.0,80,0.00,,,0.91,,2013-02-10 12:12:00,
2013-02-10 07:21:00,10.0,5.0,30.35,SE,144,0.0,0.0,80,0.00,,,0.91,,2013-02-10 12:21:00,
2013-02-10 07:32:00,9.0,4.0,30.36,SE,144,0.0,0.0,80,0.00,,,0.91,,2013-02-10 12:32:00,
2013-02-10 07:42:00,9.0,4.0,30.36,SE,144,0.0,0.0,80,0.00,,,0.91,,2013-02-10 12:42:00,
2013-02-10 07:52:00,9.0,4.0,30.36,SE,144,0.0,0.0,80,0.00,,,0.91,,2013-02-10 12:52:00,
2013-02-10 08:02:00,9.0,4.0,30.36,SE,144,0.0,0.0,80,0.00,,,0.91,,2013-02-10 13:02:00,
2013-02-10 08:11:00,9.0,4.0,30.36,SE,144,0.0,0.0,80,0.00,,,0.91,,2013-02-10 13:11:00,
2013-02-10 08:21:00,10.0,5.0,30.36,SE,144,0.0,0.0,80,0.00,,,0.91,,2013-02-10 13:21:00,
2013-02-10 08:31:00,10.0,5.0,30.37,SE,144,0.0,0.0,80,0.00,,,0.91,,2013-02-10 13:31:00,
2013-02-10 08:41:00,10.0,5.0,30.37,SE,144,0.0,0.0,80,0.00,,,0.91,,2013-02-10 13:41:00,
2013-02-10 08:52:00,12.0,7.0,30.37,SE,144,0.0,0.0,80,0.00,,,0.91,,2013-02-10 13:52:00,
2013-02-10 09:02:00,14.0,9.0,30.37,SE,144,0.0,0.0,80,0.00,,,0.91,,2013-02-10 14:02:00,
2013-02-10 09:11:00,14.0,9.0,30.37,SE,144,0.0,0.0,80,0.00,,,0.91,,2013-02-10 14:11:00,
2013-02-10 09:21:00,15.0,10.0,30.35,SE,144,0.0,0.0,80,0.00,,,0.91,,2013-02-10 14:21:00,
2013-02-10 09:32:00,17.0,12.0,30.35,SE,144,0.0,0.0,80,0.00,,,0.91,,2013-02-10 14:32:00,
2013-02-10 09:41:00,17.0,12.0,30.35,SE,144,0.0,0.0,80,0.00,,,0.91,,2013-02-10 14:41:00,
2013-02-10 09:52:00,19.0,14.0,30.34,SE,144,0.0,0.0,80,0.00,,,0.91,,2013-02-10 14:52:00,
2013-02-10 10:02:00,20.0,15.0,30.33,SE,142,0.0,0.0,80,0.00,,,0.91,,2013-02-10 15:02:00,
2013-02-10 10:11:00,20.0,15.0,30.33,SE,142,0.0,0.0,80,0.00,,,0.91,,2013-02-10 15:11:00,
2013-02-10 10:22:00,22.0,17.0,30.32,SE,142,0.0,0.0,80,0.04,,,0.94,,2013-02-10 15:22:00,
2013-02-10 10:32:00,22.0,17.0,30.32,SE,142,0.0,0.0,80,0.04,,,0.94,,2013-02-10 15:32:00,
2013-02-10 10:42:00,22.0,17.0,30.32,SE,142,0.0,0.0,80,0.04,,,0.94,,2013-02-10 15:42:00,
2013-02-10 10:52:00,23.0,18.0,30.31,SE,142,0.0,0.0,80,0.08,,,0.98,,2013-02-10 15:52:00,
2013-02-10 11:02:00,26.0,21.0,30.30,SE,142,0.0,1.0,80,0.12,,,1.02,,2013-02-10 16:02:00,
2013-02-10 11:12:00,27.0,21.0,30.29,SE,142,1.0,2.0,79,0.08,,,1.02,,2013-02-10 16:12:00,
2013-02-10 11:22:00,27.0,21.0,30.29,SE,142,1.0,2.0,79,0.08,,,1.02,,2013-02-10 16:22:00,
2013-02-10 11:32:00,27.0,21.0,30.28,ENE,74,1.0,3.0,79,0.08,,,1.02,,2013-02-10 16:32:00,
2013-02-10 11:42:00,27.0,21.0,30.27,ENE,58,2.0,4.0,79,0.12,,,1.10,,2013-02-10 16:42:00,
2013-02-10 11:52:00,27.0,21.0,30.27,ENE,58,2.0,4.0,79,0.12,,,1.10,,2013-02-10 16:52:00,
2013-02-10 12:02:00,27.0,21.0,30.26,ENE,59,2.0,5.0,79,0.08,,,1.10,,2013-02-10 17:02:00,
2013-02-10 12:11:00,27.0,21.0,30.26,ENE,59,2.0,5.0,79,0.08,,,1.10,,2013-02-10 17:11:00,
2013-02-10 12:22:00,29.0,23.0,30.24,NE,53,3.0,6.0,79,0.12,,,1.14,,2013-02-10 17:22:00,
2013-02-10 12:32:00,30.0,24.0,30.24,NE,51,2.0,5.0,79,0.16,,,1.18,,2013-02-10 17:32:00,
2013-02-10 12:42:00,31.0,25.0,30.25,NE,51,0.0,3.0,79,0.12,,,1.22,,2013-02-10 17:42:00,
2013-02-10 12:52:00,31.0,25.0,30.25,NE,51,0.0,3.0,79,0.12,,,1.22,,2013-02-10 17:52:00,
2013-02-10 13:02:00,31.0,25.0,30.24,NE,51,1.0,3.0,79,0.16,,,1.26,,2013-02-10 18:02:00,
2013-02-10 13:12:00,32.0,26.0,30.22,NE,53,4.0,5.0,79,0.16,,,1.14,,2013-02-10 18:12:00,
2013-02-10 13:22:00,32.0,26.0,30.22,NE,53,4.0,5.0,79,0.16,,,1.14,,2013-02-10 18:22:00,
2013-02-10 13:32:00,32.0,26.0,30.22,NE,52,1.0,3.0,79,0.16,,,1.18,,2013-02-10 18:32:00,
2013-02-10 13:42:00,32.0,26.0,30.22,NE,52,1.0,3.0,79,0.16,,,1.18,,2013-02-10 18:42:00,
2013-02-10 13:52:00,33.0,27.0,30.22,NE,52,1.0,4.0,79,0.16,,,1.22,,2013-02-10 18:52:00,
2013-02-10 14:02:00,33.0,27.0,30.22,NE,52,0.0,1.0,79,0.16,,,1.26,,2013-02-10 19:02:00,
2013-02-10 14:12:00,34.0,28.0,30.21,NE,52,0.0,2.0,79,0.12,,,0.98,,2013-02-10 19:12:00,
2013-02-10 14:22:00,34.0,28.0,30.21,NE,52,0.0,2.0,79,0.12,,,0.98,,2013-02-10 19:22:00,
2013-02-10 14:32:00,34.0,28.0,30.19,NE,52,0.0,2.0,79,0.12,,,1.02,,2013-02-10 19:32:00,
2013-02-10 14:42:00,34.0,28.0,30.17,NE,53,3.0,6.0,79,0.12,,,1.06,,2013-02-10 19:42:00,
2013-02-10 14:52:00,34.0,28.0,30.17,NE,53,3.0,6.0,79,0.12,,,1.06,,2013-02-10 19:52:00,
2013-02-10 15:02:00,33.0,27.0,30.16,ENE,61,5.0,7.0,79,0.08,,,1.06,,2013-02-10 20:02:00,
2013-02-10 15:11:00,33.0,27.0,30.16,ENE,61,5.0,7.0,79,0.08,,,1.06,,2013-02-10 20:11:00,
2013-02-10 15:22:00,33.0,27.0,30.16,ENE,59,5.0,9.0,79,0.12,,,0.83,,2013-02-10 20:22:00,
2013-02-10 15:32:00,33.0,28.0,30.15,ENE,74,5.0,7.0,80,0.08,,,0.83,,2013-02-10 20:32:00,
2013-02-10 15:42:00,33.0,28.0,30.15,ENE,63,4.0,5.0,80,0.04,,,0.83,,2013-02-10 20:42:00,
2013-02-10 15:52:00,33.0,28.0,30.15,ENE,63,4.0,5.0,80,0.04,,,0.83,,2013-02-10 20:52:00,
2013-02-10 16:02:00,32.0,27.0,30.15,NE,49,2.0,5.0,80,0.04,,,0.83,,2013-02-10 21:02:00,
2013-02-10 16:11:00,32.0,27.0,30.15,NE,52,1.0,4.0,80,0.04,,,0.67,,2013-02-10 21:11:00,
2013-02-10 16:22:00,32.0,27.0,30.15,NE,52,1.0,4.0,80,0.04,,,0.67,,2013-02-10 21:22:00,
2013-02-10 16:32:00,32.0,27.0,30.13,NE,47,4.0,6.0,80,0.04,,,0.67,,2013-02-10 21:32:00,
2013-02-10 16:42:00,32.0,27.0,30.12,ENE,61,4.0,6.0,80,0.04,,,0.67,,2013-02-10 21:42:00,
2013-02-10 16:52:00,32.0,27.0,30.12,ENE,61,4.0,6.0,80,0.04,,,0.67,,2013-02-10 21:52:00,
2013-02-10 17:02:00,31.0,26.0,30.11,NE,49,3.0,4.0,80,0.04,,,0.67,,2013-02-10 22:02:00,
2013-02-10 17:11:00,31.0,26.0,30.10,ENE,67,3.0,5.0,80,0.00,,,0.67,,2013-02-10 22:11:00,
2013-02-10 17:22:00,31.0,26.0,30.10,ENE,67,3.0,5.0,80,0.00,,,0.67,,2013-02-10 22:22:00,
2013-02-10 17:32:00,31.0,26.0,30.09,ENE,67,1.0,4.0,80,0.00,,,0.67,,2013-02-10 22:32:00,
2013-02-10 17:42:00,30.0,25.0,30.10,ENE,67,2.0,3.0,80,0.00,,,0.67,,2013-02-10 22:42:00,
2013-02-10 17:53:00,30.0,25.0,30.10,ENE,67,2.0,3.0,80,0.00,,,0.67,,2013-02-10 22:53:00,
2013-02-10 18:02:00,30.0,25.0,30.09,East,95,5.0,7.0,80,0.00,,,0.67,,2013-02-10 23:02:00,
2013-02-10 18:11:00,30.0,25.0,30.09,East,95,5.0,7.0,80,0.00,,,0.67,,2013-02-10 23:11:00,
2013-02-10 18:22:00,30.0,25.0,30.09,East,95,5.0,7.0,80,0.00,,,0.67,,2013-02-10 23:22:00,
2013-02-10 18:32:00,31.0,25.0,30.08,ESE,104,3.0,6.0,79,0.00,,,0.67,,2013-02-10 23:32:00,
2013-02-10 18:42:00,31.0,25.0,30.06,ESE,102,5.0,8.0,78,0.00,,,0.67,,2013-02-10 23:42:00,
2013-02-10 18:52:00,31.0,25.0,30.06,ESE,102,5.0,8.0,78,0.00,,,0.67,,2013-02-10 23:52:00,
2013-02-10 19:02:00,32.0,26.0,30.06,East,83,3.0,7.0,78,0.00,,,0.67,,2013-02-11 00:02:00,
2013-02-10 19:11:00,32.0,26.0,30.06,ESE,111,1.0,5.0,78,0.00,,,0.67,,2013-02-11 00:11:00,
2013-02-10 19:22:00,32.0,26.0,30.06,ESE,111,1.0,5.0,78,0.00,,,0.67,,2013-02-11 00:22:00,
2013-02-10 19:32:00,32.0,26.0,30.06,East,94,2.0,3.0,78,0.00,,,0.67,,2013-02-11 00:32:00,
2013-02-10 19:42:00,32.0,26.0,30.04,ENE,78,2.0,4.0,78,0.00,,,0.67,,2013-02-11 00:42:00,
2013-02-10 19:52:00,32.0,26.0,30.04,ENE,78,2.0,4.0,78,0.00,,,0.67,,2013-02-11 00:52:00,
2013-02-10 20:01:00,32.0,26.0,30.03,East,98,2.0,5.0,78,0.00,,,0.67,,2013-02-11 01:01:00,
2013-02-10 20:11:00,32.0,26.0,30.03,East,98,2.0,5.0,78,0.00,,,0.67,,2013-02-11 01:11:00,
2013-02-10 20:21:00,32.0,26.0,30.03,East,98,1.0,3.0,78,0.00,,,0.67,,2013-02-11 01:21:00,
2013-02-10 20:32:00,32.0,26.0,30.01,East,96,3.0,5.0,78,0.00,,,0.67,,2013-02-11 01:32:00,
2013-02-10 20:42:00,32.0,26.0,30.00,East,99,4.0,6.0,78,0.00,,,0.67,,2013-02-11 01:42:00,
2013-02-10 20:52:00,32.0,26.0,30.00,East,99,4.0,6.0,78,0.00,,,0.67,,2013-02-11 01:52:00,
2013-02-10 21:01:00,33.0,27.0,29.98,East,101,4.0,8.0,78,0.00,,,0.67,,2013-02-11 02:01:00,
2013-02-10 21:11:00,33.0,27.0,29.98,East,101,4.0,8.0,78,0.00,,,0.67,,2013-02-11 02:11:00,
2013-02-10 21:21:00,33.0,27.0,29.98,ESE,107,2.0,7.0,77,0.00,,,0.67,,2013-02-11 02:21:00,
2013-02-10 21:32:00,33.0,27.0,29.98,ESE,102,0.0,3.0,77,0.00,,,0.67,,2013-02-11 02:32:00,
2013-02-10 21:42:00,33.0,27.0,29.97,ESE,102,0.0,1.0,78,0.00,,,0.67,,2013-02-11 02:42:00,
2013-02-10 21:52:00,33.0,27.0,29.97,ESE,102,0.0,1.0,78,0.00,,,0.67,,2013-02-11 02:52:00,
2013-02-10 22:02:00,33.0,27.0,29.97,ESE,102,0.0,1.0,78,0.00,,,0.67,,2013-02-11 03:02:00,
2013-02-10 22:11:00,33.0,27.0,29.97,ESE,102,0.0,2.0,78,0.00,,,0.67,,2013-02-11 03:11:00,
2013-02-10 22:21:00,33.0,27.0,29.97,ESE,102,0.0,2.0,78,0.00,,,0.67,,2013-02-11 03:21:00,
2013-02-10 22:32:00,33.0,27.0,29.96,ESE,113,1.0,2.0,78,0.00,,,0.67,,2013-02-11 03:32:00,
2013-02-10 22:42:00,33.0,27.0,29.95,ENE,74,1.0,3.0,78,0.00,,,0.67,,2013-02-11 03:42:00,
2013-02-10 22:52:00,33.0,27.0,29.95,ENE,74,1.0,3.0,78,0.00,,,0.67,,2013-02-11 03:52:00,
2013-02-10 23:01:00,33.0,27.0,29.96,SW,231,2.0,3.0,78,0.00,,,0.67,,2013-02-11 04:01:00,
2013-02-10 23:11:00,33.0,27.0,29.96,SW,231,2.0,3.0,78,0.00,,,0.67,,2013-02-11 04:11:00,
2013-02-10 23:21:00,33.0,27.0,29.94,WNW,288,0.0,4.0,78,0.00,,,0.67,,2013-02-11 04:21:00,
2013-02-10 23:32:00,33.0,27.0,29.94,WSW,246,0.0,1.0,78,0.00,,,0.67,,2013-02-11 04:32:00,
2013-02-10 23:42:00,33.0,27.0,29.92,East,94,2.0,3.0,78,0.00,,,0.67,,2013-02-11 04:42:00,
2013-02-10 23:52:00,33.0,27.0,29.92,East,94,2.0,3.0,78,0.00,,,0.67,,2013-02-11 04:52:00,